1298851231284,94.7449
1298851291284,94.9504
1298851351284,94.8587
1298851411284,95.2507
1298851471284,95.0359
1298851531284,95.4035
1298851591284,95.4212
1298851651284,95.6522
1298851711284,95.7822
1298851771284,95.1545
1298851831284,95.2025
1298851891284,95.1953
1298851951284,95.1937
1298852011284,94.9939
1298852071284,95.3801
1298852131284,95.2852
1298852191284,95.4439
1298852251284,95.5104
1298852311284,95.0476
1298852371284,94.9057
1298852431284,95.0065
1298852491284,95.0357
1298852551284,95.5410
1298852611284,95.3141
1298852671284,95.2865
1298852731284,94.7886
1298852791284,95.3545
1298852851284,95.2988
1298852911284,95.4961
1298852971284,94.7908
1298853031284,95.1592
1298853091284,95.0838
1298853151284,94.9974
1298853211284,95.3019
1298853271284,95.5660
1298853331284,95.1761
1298853391284,94.7911
1298853451284,95.7467
1298853511284,95.1680
1298853571284,95.4331
1298853631284,95.1767
1298853691284,95.1211
1298853751284,95.1519
1298853811284,95.2802
1298853871284,95.1328
1298853931284,95.3837
1298853991284,95.1554
1298854051284,94.9551
1298854111284,95.1056
1298854171284,94.7914
1298854231284,94.8401
1298854291284,95.0917
1298854351284,95.1544
1298854411284,95.4861
1298854471284,94.8937
1298854531284,95.2254
1298854591284,95.2583
1298854651284,94.8268
1298854711284,94.8251
1298854771284,95.7013
1298854831295,94.7224
1298854891295,95.0797
1298854951295,94.7968
1298855011295,95.2416
1298855071295,95.1290
1298855131295,94.7475
1298855191295,95.1069
1298855251295,94.8675
1298855311295,95.2411
1298855371295,95.0905
1298855431295,95.1513
1298855491295,94.6098
1298855551295,94.5884
1298855611295,94.9794
1298855671295,95.1787
1298855731295,94.8157
1298855791295,94.9532
1298855851295,94.8968
1298855911295,94.9697
1298855971295,94.4641
1298856031295,94.6850
1298856091295,94.8159
1298856151295,94.4957
1298856211295,94.5608
1298856271295,94.7169
1298856331295,94.3609
1298856391295,94.7275
1298856451295,95.1346
1298856511295,94.9453
1298856571295,94.6084
1298856631295,94.6990
1298856691295,94.5988
1298856751295,95.0920
1298856811295,95.2697
1298856871295,94.5845
1298856931295,94.7300
1298856991295,94.3056
1298857051295,94.9244
1298857111295,94.9215
1298857171295,94.5936
1298857231295,94.6722
1298857291295,94.4503
1298857351295,95.2081
1298857411295,94.8097
1298857471295,94.8515
1298857531295,94.6427
1298857591295,94.3537
1298857651295,94.8832
1298857711295,94.7412
1298857771295,95.1334
1298857831295,94.9233
1298857891295,94.8424
1298857951295,95.1144
1298858011295,94.5435
1298858071295,94.5813
1298858131295,94.7671
1298858191295,94.7909
1298858251295,94.9953
1298858311295,94.6499
1298858371295,94.8512
1298858431307,94.9717
1298858491307,94.7808
1298858551307,95.1361
1298858611307,95.0062
1298858671307,95.1850
1298858731307,95.0481
1298858791307,94.8809
1298858851307,95.1403
1298858911307,95.4878
1298858971307,94.9219
1298859031307,94.4185
1298859091307,95.3029
1298859151307,95.0259
1298859211307,94.8883
1298859271307,95.4094
1298859331307,95.2046
1298859391307,95.0129
1298859451307,94.9552
1298859511307,95.1590
1298859571307,94.9418
1298859631307,95.0771
1298859691307,94.6897
1298859751307,95.1425
1298859811307,95.0244
1298859871307,95.4717
1298859931307,95.1805
1298859991307,95.6710
1298860051307,95.3735
1298860111307,95.5004
1298860171307,95.1201
1298860231307,95.1391
1298860291307,95.3175
1298860351307,94.9176
1298860411307,94.8311
1298860471307,94.9911
1298860531307,95.3841
1298860591307,95.0517
1298860651307,94.9713
1298860711307,95.1890
1298860771307,95.1512
1298860831307,94.5579
1298860891307,95.5887
1298860951307,94.8895
1298861011307,94.7622
1298861071307,95.1632
1298861131307,95.0446
1298861191307,95.4252
1298861251307,94.8944
1298861311307,94.8352
1298861371307,95.1670
1298861431307,94.4366
1298861491307,94.6706
1298861551307,95.1361
1298861611307,95.3335
1298861671307,95.1368
1298861731307,95.4746
1298861791307,94.8172
1298861851307,95.4136
1298861911307,94.8366
1298861971307,95.2579
1298862031318,95.3086
1298862091318,94.7362
1298862151318,95.3673
1298862211318,95.3572
1298862271318,95.8968
1298862331318,94.9456
1298862391318,95.5353
1298862451318,95.2294
1298862511318,95.1789
1298862571318,95.7036
1298862631318,95.1752
1298862691318,95.4791
1298862751318,95.0131
1298862811318,95.4346
1298862871318,95.1274
1298862931318,95.2544
1298862991318,95.7261
1298863051318,95.7056
1298863111318,94.8493
1298863171318,95.4031
1298863231318,95.7930
1298863291318,95.4155
1298863351318,95.7565
1298863411318,95.7156
1298863471318,95.0137
1298863531318,95.3585
1298863591318,95.6762
1298863651318,96.0238
1298863711318,95.9018
1298863771318,95.7001
1298863831318,95.4996
1298863891318,95.6780
1298863951318,95.3835
1298864011318,95.7287
1298864071318,96.0202
1298864131318,95.4965
1298864191318,95.1282
1298864251318,95.9362
1298864311318,95.3709
1298864371318,95.5140
1298864431318,95.6814
1298864491318,95.5207
1298864551318,95.7059
1298864611318,95.6747
1298864671318,95.5122
1298864731318,95.5834
1298864791318,95.5221
1298864851318,96.0398
1298864911318,95.9136
1298864971318,95.7778
1298865031318,95.7500
1298865091318,96.0125
1298865151318,95.5241
1298865211318,96.0443
1298865271318,95.8511
1298865331318,95.5742
1298865391318,95.7766
1298865451318,95.8505
1298865511318,96.0102
1298865571318,95.5781
1298865631330,95.6773
1298865691330,95.9000
1298865751330,95.7318
1298865811330,95.5198
1298865871330,95.6473
1298865931330,95.6759
1298865991330,95.7003
1298866051330,95.3204
1298866111330,95.6885
1298866171330,95.5152
1298866231330,95.5966
1298866291330,95.3135
1298866351330,95.0760
1298866411330,95.3912
1298866471330,95.6801
1298866531330,95.9101
1298866591330,95.3518
1298866651330,95.3959
1298866711330,94.9898
1298866771330,95.1012
1298866831330,95.2489
1298866891330,95.2845
1298866951330,95.0907
1298867011330,95.5836
1298867071330,95.2729
1298867131330,95.3552
1298867191330,95.3637
1298867251330,95.3260
1298867311330,95.4448
1298867371330,95.1359
1298867431330,95.5183
1298867491330,95.3252
1298867551330,95.1967
1298867611330,95.7362
1298867671330,95.4213
1298867731330,95.3247
1298867791330,95.2640
1298867851330,95.4437
1298867911330,95.9593
1298867971330,95.7546
1298868031330,95.5609
1298868091330,95.2478
1298868151330,95.5781
1298868211330,95.2157
1298868271330,95.4503
1298868331330,95.3416
1298868391330,95.3919
1298868451330,95.0584
1298868511330,95.0523
1298868571330,95.5117
1298868631330,95.4630
1298868691330,95.4377
1298868751330,95.8291
1298868811330,95.3725
1298868871330,95.2281
1298868931330,95.4362
1298868991330,95.7727
1298869051330,95.2920
1298869111330,95.7145
1298869171330,95.2763
1298869231341,95.3034
1298869291341,95.6675
1298869351341,95.0163
1298869411341,95.6300
1298869471341,95.2734
1298869531341,95.2199
1298869591341,95.5245
1298869651341,95.1683
1298869711341,95.3126
1298869771341,95.2512
1298869831341,95.2264
1298869891341,95.2741
1298869951341,95.3314
1298870011341,95.4995
1298870071341,95.2779
1298870131341,95.9138
1298870191341,95.7810
1298870251341,95.0707
1298870311341,95.4420
1298870371341,95.3086
1298870431341,95.4736
1298870491341,95.3161
1298870551341,95.0290
1298870611341,94.9688
1298870671341,95.1609
1298870731341,95.1385
1298870791341,95.4827
1298870851341,95.3506
1298870911341,95.2110
1298870971341,94.8068
1298871031341,95.1164
1298871091341,94.9243
1298871151341,95.0270
1298871211341,94.8433
1298871271341,95.1787
1298871331341,94.9684
1298871391341,95.2702
1298871451341,94.8065
1298871511341,94.9153
1298871571341,95.1787
1298871631341,95.0967
1298871691341,94.8011
1298871751341,94.9597
1298871811341,95.2792
1298871871341,95.4681
1298871931341,95.1428
1298871991341,95.0467
1298872051341,94.7851
1298872111341,95.2324
1298872171341,95.1822
1298872231341,95.2898
1298872291341,95.1790
1298872351341,95.1384
1298872411341,95.1594
1298872471341,95.1230
1298872531341,94.8979
1298872591341,94.5498
1298872651341,95.0390
1298872711341,94.7153
1298872771341,94.7472
1298872831353,95.3014
1298872891353,94.6420
1298872951353,94.9327
1298873011353,94.6792
1298873071353,94.5807
1298873131353,95.2294
1298873191353,94.6027
1298873251353,94.5112
1298873311353,95.0943
1298873371353,94.7533
1298873431353,94.9253
1298873491353,94.4845
1298873551353,94.7857
1298873611353,94.6394
1298873671353,94.9359
1298873731353,94.9243
1298873791353,94.3677
1298873851353,94.7766
1298873911353,94.5838
1298873971353,94.6672
1298874031353,94.6653
1298874091353,94.9950
1298874151353,95.0257
1298874211353,94.8732
1298874271353,94.3839
1298874331353,94.5434
1298874391353,94.9568
1298874451353,94.5385
1298874511353,94.7371
1298874571353,94.6580
1298874631353,95.0569
1298874691353,94.5824
1298874751353,94.7706
1298874811353,94.3421
1298874871353,95.3322
1298874931353,94.9491
1298874991353,94.7947
1298875051353,95.4447
1298875111353,95.2725
1298875171353,94.9574
1298875231353,95.0370
1298875291353,95.2113
1298875351353,94.9749
1298875411353,95.2779
1298875471353,94.8886
1298875531353,94.7056
1298875591353,94.9071
1298875651353,94.8286
1298875711353,95.0031
1298875771353,94.9765
1298875831353,94.5574
1298875891353,94.4951
1298875951353,94.6305
1298876011353,94.2722
1298876071353,94.5004
1298876131353,94.6033
1298876191353,94.5370
1298876251353,94.9958
1298876311353,95.3290
1298876371353,94.2991
1298876431365,94.4848
1298876491365,94.8794
1298876551365,94.4964
1298876611365,95.2542
1298876671365,94.8037
1298876731365,95.3680
1298876791365,95.1399
1298876851365,94.4991
1298876911365,94.4204
1298876971365,94.6886
1298877031365,94.8696
1298877091365,94.9066
1298877151365,95.0429
1298877211365,94.9747
1298877271365,95.1250
1298877331365,95.4561
1298877391365,94.7871
1298877451365,95.3128
1298877511365,94.9612
1298877571365,95.4993
1298877631365,95.0284
1298877691365,95.1737
1298877751365,95.2519
1298877811365,95.3816
1298877871365,95.6579
1298877931365,95.2210
1298877991365,95.0216
1298878051365,95.5848
1298878111365,94.9651
1298878171365,94.9659
1298878231365,94.6796
1298878291365,95.6719
1298878351365,95.6365
1298878411365,94.7635
1298878471365,95.0155
1298878531365,94.7605
1298878591365,95.3167
1298878651365,95.5026
1298878711365,95.4459
1298878771365,95.6334
1298878831365,95.3322
1298878891365,94.6627
1298878951365,95.5344
1298879011365,95.1339
1298879071365,95.6464
1298879131365,95.0276
1298879191365,95.3818
1298879251365,94.8601
1298879311365,95.3348
1298879371365,95.4200
1298879431365,95.2237
1298879491365,95.3204
1298879551365,95.0064
1298879611365,95.5746
1298879671365,95.2905
1298879731365,95.1742
1298879791365,95.3860
1298879851365,95.2521
1298879911365,95.1064
1298879971365,95.2948
1298880031376,95.0506
1298880091376,95.5863
1298880151376,95.2277
1298880211376,94.9805
1298880271376,94.9599
1298880331376,95.3226
1298880391376,95.2770
1298880451376,95.3622
1298880511376,95.0754
1298880571376,95.6148
1298880631376,95.7649
1298880691376,94.9720
1298880751376,95.0678
1298880811376,95.3564
1298880871376,95.0579
1298880931376,94.8663
1298880991376,95.4669
1298881051376,95.6428
1298881111376,95.3327
1298881171376,96.0265
1298881231376,95.2350
1298881291376,95.1425
1298881351376,95.2150
1298881411376,95.3336
1298881471376,95.3443
1298881531376,95.0485
1298881591376,95.3669
1298881651376,95.4219
1298881711376,95.5975
1298881771376,95.3759
1298881831376,95.3672
1298881891376,95.6765
1298881951376,95.1639
1298882011376,95.3649
1298882071376,95.7394
1298882131376,95.4596
1298882191376,95.5816
1298882251376,95.5598
1298882311376,95.8138
1298882371376,95.3318
1298882431376,95.5233
1298882491376,95.4940
1298882551376,95.8041
1298882611376,96.0780
1298882671376,95.0594
1298882731376,95.7584
1298882791376,95.0965
1298882851376,95.3077
1298882911376,95.7604
1298882971376,95.6378
1298883031376,95.6143
1298883091376,95.6169
1298883151376,95.3910
1298883211376,95.9677
1298883271376,95.9362
1298883331376,95.7255
1298883391376,95.7512
1298883451376,95.7022
1298883511376,95.5261
1298883571376,95.5654
1298883631388,95.3760
1298883691388,95.1026
1298883751388,95.9651
1298883811388,95.5346
1298883871388,95.5737
1298883931388,95.9147
1298883991388,95.8322
1298884051388,95.5651
1298884111388,95.8677
1298884171388,95.5267
1298884231388,95.7200
1298884291388,95.9569
1298884351388,96.2290
1298884411388,95.3300
1298884471388,95.6210
1298884531388,95.7000
1298884591388,96.2291
1298884651388,96.0781
1298884711388,95.9139
1298884771388,95.4177
1298884831388,96.1502
1298884891388,95.7405
1298884951388,95.6901
1298885011388,95.7974
1298885071388,95.6729
1298885131388,95.9200
1298885191388,95.4086
1298885251388,95.8907
1298885311388,95.5683
1298885371388,96.0596
1298885431388,95.9102
1298885491388,95.6207
1298885551388,96.0622
1298885611388,95.7818
1298885671388,95.7121
1298885731388,95.7258
1298885791388,95.4983
1298885851388,95.9101
1298885911388,95.8396
1298885971388,95.1466
1298886031388,95.3739
1298886091388,95.5688
1298886151388,96.2326
1298886211388,95.9554
1298886271388,95.7251
1298886331388,95.4727
1298886391388,95.7425
1298886451388,96.1170
1298886511388,95.2386
1298886571388,95.9048
1298886631388,95.0444
1298886691388,95.1037
1298886751388,95.5627
1298886811388,95.3063
1298886871388,95.2275
1298886931388,95.2717
1298886991388,95.5977
1298887051388,95.5403
1298887111388,95.3625
1298887171388,95.1484
1298887231400,95.3793
1298887291400,95.6892
1298887351400,95.4285
1298887411400,95.8226
1298887471400,95.2235
1298887531400,95.0212
1298887591400,95.5002
1298887651400,95.1346
1298887711400,94.9092
1298887771400,95.1751
1298887831400,95.3904
1298887891400,95.3195
1298887951400,95.6582
1298888011400,95.0743
1298888071400,94.9584
1298888131400,94.5406
1298888191400,95.6350
1298888251400,95.4375
1298888311400,95.1211
1298888371400,95.0241
1298888431400,95.3071
1298888491400,95.2735
1298888551400,95.2690
1298888611400,94.8982
1298888671400,95.2187
1298888731400,95.3263
1298888791400,94.7843
1298888851400,94.8344
1298888911400,95.0758
1298888971400,95.3969
1298889031400,94.7992
1298889091400,94.9511
1298889151400,94.9813
1298889211400,95.1854
1298889271400,94.7018
1298889331400,94.9446
1298889391400,95.0690
1298889451400,95.2768
1298889511400,94.9528
1298889571400,94.9983
1298889631400,94.9099
1298889691400,95.1757
1298889751400,94.7003
1298889811400,95.0812
1298889871400,94.5934
1298889931400,94.7577
1298889991400,94.7638
1298890051400,95.2626
1298890111400,95.0532
1298890171400,94.8542
1298890231400,94.5415
1298890291400,95.0840
1298890351400,94.6369
1298890411400,94.5907
1298890471400,94.3941
1298890531400,94.7847
1298890591400,94.5313
1298890651400,94.4678
1298890711400,94.8796
1298890771400,94.8183
1298890831411,94.9013
1298890891411,94.7969
1298890951411,94.9751
1298891011411,94.8875
1298891071411,94.9526
1298891131411,94.8901
1298891191411,94.2967
1298891251411,95.1864
1298891311411,94.7833
1298891371411,94.6471
1298891431411,94.9303
1298891491411,94.7624
1298891551411,94.4989
1298891611411,94.7996
1298891671411,94.6958
1298891731411,95.2473
1298891791411,94.6448
1298891851411,95.1825
1298891911411,95.3087
1298891971411,94.9967
1298892031411,95.3572
1298892091411,95.0234
1298892151411,94.8444
1298892211411,94.9795
1298892271411,94.6948
1298892331411,94.9690
1298892391411,94.8523
1298892451411,94.7557
1298892511411,94.9379
1298892571411,94.7981
1298892631411,95.2829
1298892691411,94.7664
1298892751411,94.8164
1298892811411,94.9919
1298892871411,94.8449
1298892931411,95.0047
1298892991411,94.8481
1298893051411,94.9535
1298893111411,94.9716
1298893171411,94.7373
1298893231411,94.8635
1298893291411,95.0863
1298893351411,94.9623
1298893411411,94.6850
1298893471411,95.6589
1298893531411,94.8545
1298893591411,94.8688
1298893651411,94.9200
1298893711411,94.4946
1298893771411,94.6609
1298893831411,95.0788
1298893891411,94.8101
1298893951411,94.6965
1298894011411,94.4207
1298894071411,94.5742
1298894131411,94.9698
1298894191411,94.6771
1298894251411,94.5002
1298894311411,94.6086
1298894371411,94.7719
1298894431423,94.3907
1298894491423,94.4054
1298894551423,94.6012
1298894611423,94.4597
1298894671423,94.5087
1298894731423,94.8715
1298894791423,94.4735
1298894851423,94.8679
1298894911423,94.4669
1298894971423,94.4052
1298895031423,94.6415
1298895091423,94.4307
1298895151423,94.5659
1298895211423,94.0655
1298895271423,94.2541
1298895331423,94.2950
1298895391423,94.3472
1298895451423,93.8378
1298895511423,94.4938
1298895571423,94.5749
1298895631423,94.8282
1298895691423,94.7099
1298895751423,94.6511
1298895811423,94.8012
1298895871423,94.2501
1298895931423,94.3286
1298895991423,94.7552
1298896051423,94.1515
1298896111423,94.6955
1298896171423,94.2699
1298896231423,94.6642
1298896291423,94.5913
1298896351423,94.0734
1298896411423,94.5848
1298896471423,94.4030
1298896531423,94.6065
1298896591423,94.4807
1298896651423,95.0052
1298896711423,94.4550
1298896771423,94.7866
1298896831423,94.6281
1298896891423,94.8354
1298896951423,94.3522
1298897011423,94.5495
1298897071423,94.6833
1298897131423,94.5799
1298897191423,94.9558
1298897251423,94.7140
1298897311423,95.4926
1298897371423,95.6934
1298897431423,95.6010
1298897491423,95.2009
1298897551423,95.0644
1298897611423,94.8886
1298897671423,94.7588
1298897731423,94.8731
1298897791423,94.9103
1298897851423,94.7028
1298897911423,94.7336
1298897971423,94.9711
1298898031434,94.4726
1298898091434,93.8620
1298898151434,94.6527
1298898211434,94.9786
1298898271434,95.1188
1298898331434,94.8201
1298898391434,94.9037
1298898451434,94.7461
1298898511434,94.9622
1298898571434,95.1976
1298898631434,94.2188
1298898691434,94.5890
1298899231434,94.3265
1298899291434,94.3887
1298899351434,94.6415
1298899411434,94.5655
1298899471434,94.3059
1298899531434,94.8003
1298899591434,94.2860
1298899651434,94.1259
1298899711434,94.3340
1298899771434,94.0180
1298899831434,93.9062
1298899891434,94.4719
1298899951434,94.4849
1298900011434,94.3813
1298900071434,94.7634
1298900131434,94.3782
1298900191434,94.3320
1298900251434,94.4238
1298900311434,94.6418
1298900371434,94.8980
1298900431434,94.1840
1298900491434,94.4731
1298900551434,94.6082
1298900611434,94.4659
1298900671434,94.2503
1298900731434,94.3594
1298900791434,94.5069
1298900851434,94.9942
1298900911434,94.3279
1298900971434,94.2620
1298901031434,94.7260
1298901091434,94.5754
1298901151434,94.6907
1298901211434,94.8059
1298901271434,94.3613
1298901331434,94.7820
1298901391434,94.6898
1298901451434,94.6264
1298901511434,94.9169
1298901571434,94.6563
1298901631446,94.9326
1298901691446,94.9122
1298901751446,95.1579
1298901811446,94.9165
1298901871446,94.9885
1298901931446,94.5207
1298901991446,95.0170
1298902051446,94.5856
1298902111446,94.7135
1298902171446,94.4210
1298902231446,94.5625
1298902291446,94.4334
1298902351446,93.9010
1298902411446,94.2324
1298902471446,94.3538
1298902531446,94.1818
1298902591446,94.2528
1298902651446,94.2901
1298902711446,94.8426
1298902771446,94.7187
1298902831446,94.0932
1298902891446,94.8051
1298902951446,94.3830
1298903011446,94.4744
1298903071446,94.3850
1298903131446,94.4585
1298903191446,94.1601
1298903251446,94.0703
1298903311446,94.0566
1298903371446,93.9307
1298903431446,93.9202
1298903491446,94.0368
1298903551446,94.3293
1298903611446,94.2736
1298903671446,93.7872
1298903731446,93.5009
1298903791446,93.7809
1298903851446,93.7775
1298903911446,94.1098
1298903971446,93.7062
1298904031446,93.7957
1298904091446,93.8323
1298904151446,93.9636
1298904211446,93.8394
1298904271446,93.6874
1298904331446,93.4755
1298904391446,93.4239
1298904451446,93.3808
1298904511446,93.8411
1298904571446,93.6428
1298904631446,93.4990
1298904691446,93.3972
1298904751446,93.7836
1298904811446,93.5748
1298904871446,93.5635
1298904931446,93.6719
1298904991446,93.8121
1298905051446,94.0868
1298905111446,93.9513
1298905171446,93.5719
1298905231457,93.6329
1298905291457,93.9322
1298905351457,93.7457
1298905411457,93.8114
1298905471457,93.9696
1298905531457,93.2210
1298905591457,93.4375
1298905651457,93.5630
1298905711457,93.3739
1298905771457,93.6212
1298905831457,93.4747
1298905891457,93.4909
1298905951457,93.7178
1298906011457,93.5346
1298906071457,93.3414
1298906131457,93.4205
1298906191457,93.3633
1298906251457,93.3754
1298906311457,93.3001
1298906371457,93.6537
1298906431457,93.6417
1298906491457,93.7226
1298906551457,93.2320
1298906611457,93.3408
1298906671457,93.7849
1298906731457,93.5455
1298906791457,94.0363
1298906851457,93.8466
1298906911457,93.5511
1298906971457,93.7904
1298907031457,93.3181
1298907091457,93.8658
1298907151457,93.4516
1298907211457,93.5015
1298907271457,93.4277
1298907331457,93.4541
1298907391457,93.2575
1298907451457,93.2629
1298907511457,93.6461
1298907571457,93.8969
1298907631457,93.3307
1298907691457,93.6970
1298907751457,93.3720
1298907811457,93.1984
1298907871457,93.6193
1298907931457,93.1801
1298907991457,93.2607
1298908051457,93.3740
1298908111457,93.5776
1298908171457,93.5208
1298908231457,93.0743
1298908291457,93.1666
1298908351457,93.6264
1298908411457,93.5149
1298908471457,93.5710
1298908531457,93.5425
1298908591457,93.1527
1298908651457,93.1809
1298908711457,93.2253
1298908771457,93.4627
1298908831468,92.9882
1298908891468,93.0669
1298908951468,93.7505
1298909011468,93.0793
1298909071468,93.7124
1298909131468,92.8574
1298909191468,93.2352
1298909251468,93.5818
1298909311468,93.2079
1298909371468,93.3645
1298909431468,93.1749
1298909491468,93.8174
1298909551468,93.2692
1298909611468,93.3990
1298909671468,93.7306
1298909731468,93.0919
1298909791468,93.2607
1298909851468,93.2695
1298909911468,93.3664
1298909971468,93.2814
1298910031468,92.9905
1298910091468,93.0304
1298910151468,93.4026
1298910211468,93.5529
1298910271468,93.1360
1298910331468,93.1412
1298910391468,93.5820
1298910451468,93.7344
1298910511468,93.0125
1298910571468,93.4528
1298910631468,93.4979
1298910691468,93.3228
1298910751468,93.5459
1298910811468,93.1925
1298910871468,93.4071
1298910931468,93.6155
1298910991468,93.6851
1298911051468,93.4203
1298911111468,93.4134
1298911171468,93.2564
1298911231468,93.2913
1298911291468,93.6964
1298911351468,93.3375
1298911411468,93.7763
1298911471468,93.5368
1298911531468,93.7058
1298911591468,93.6677
1298911651468,93.5553
1298911711468,93.5482
1298911771468,93.6654
1298911831468,93.5674
1298911891468,93.9094
1298911951468,93.8065
1298912011468,93.3365
1298912071468,93.6642
1298912131468,93.9185
1298912191468,93.5664
1298912251468,93.8497
1298912311468,93.6183
1298912371468,93.6292
1298912431479,93.8817
1298912491479,93.3395
1298912551479,93.5154
1298912611479,94.0598
1298912671479,93.7781
1298912731479,93.5660
1298912791479,93.6327
1298912851479,93.3591
1298912911479,93.9291
1298912971479,93.8084
1298913031479,93.7454
1298913091479,94.0396
1298913151479,94.1079
1298913211479,93.9033
1298913271479,94.3292
1298913331479,94.1210
1298913391479,93.9435
1298913451479,93.9199
1298913511479,94.1611
1298913571479,94.1800
1298913631479,93.8925
1298913691479,94.2102
1298913751479,93.6914
1298913811479,94.1716
1298913871479,93.8929
1298913931479,93.2511
1298913991479,93.7072
1298914051479,94.3464
1298914111479,94.0588
1298914171479,94.4949
1298914231479,94.0404
1298914291479,93.9667
1298914351479,93.5634
1298914411479,94.3032
1298914471479,93.9699
1298914531479,93.7272
1298914591479,94.2677
1298914651479,94.3042
1298914711479,94.3003
1298914771479,94.3715
1298914831479,94.4413
1298914891479,93.7198
1298914951479,94.2411
1298915011479,94.1831
1298915071479,94.1691
1298915131479,94.5214
1298915191479,94.2019
1298915251479,94.0522
1298915311479,94.2509
1298915371479,94.5535
1298915431479,93.7028
1298915491479,94.3299
1298915551479,94.4060
1298915611479,94.0609
1298915671479,93.4193
1298915731479,94.1400
1298915791479,94.5466
1298915851479,94.4002
1298915911479,94.3193
1298915971479,93.8113
1298916031490,94.1403
1298916091490,93.7761
1298916151490,94.1417
1298916211490,94.1472
1298916271490,93.9500
1298916331490,93.8576
1298916391490,94.0822
1298916451490,93.8068
1298916511490,94.2747
1298916571490,94.1796
1298916631491,94.2383
1298916691490,94.1534
1298916751490,94.2324
1298916811490,93.6407
1298916871490,93.9753
1298916931490,94.2149
1298916991490,94.1738
1298917051490,94.2171